• en Belgique
  • Liste des pays
  • À 7 jours
  • Température de l'eau
  • Carte satellitaire
  • Carte météo
  • Widgets météo
  • user-avatar
    Se connecter

    Météo par heure à Ile de Korfu

    Ce jour, 24 Octobre, Mercredi

    Heure Température Précipitation Vent Pression Humidité
    00:00 +17°C° 0 mm 4 m/s 755 mmHg 68%
    01:00 +15°C° 0 mm 4 m/s 755 mmHg 69%
    02:00 +15°C° 0 mm 4 m/s 755 mmHg 69%
    03:00 +15°C° 0 mm 4 m/s 754 mmHg 69%
    04:00 +15°C° 0 mm 4 m/s 754 mmHg 70%
    05:00 +15°C° 0 mm 4 m/s 754 mmHg 69%
    06:00 +15°C° 0 mm 5 m/s 754 mmHg 68%
    07:00 +15°C° 0 mm 5 m/s 754 mmHg 67%
    08:00 +17°C° 0 mm 5 m/s 754 mmHg 60%
    09:00 +20°C° 0 mm 6 m/s 754 mmHg 52%
    10:00 +22°C° 0 mm 6 m/s 754 mmHg 44%
    11:00 +23°C° 0 mm 7 m/s 754 mmHg 42%
    12:00 +23°C° 0 mm 7 m/s 753 mmHg 40%
    13:00 +24°C° 0 mm 8 m/s 753 mmHg 38%
    14:00 +23°C° 0 mm 8 m/s 753 mmHg 41%
    15:00 +22°C° 0 mm 9 m/s 752 mmHg 45%
    16:00 +22°C° 0 mm 9 m/s 752 mmHg 48%
    17:00 +19°C° 0 mm 9 m/s 752 mmHg 51%
    18:00 +18°C° 0 mm 8 m/s 753 mmHg 54%
    19:00 +17°C° 0 mm 8 m/s 753 mmHg 57%
    20:00 +16°C° 0 mm 8 m/s 753 mmHg 58%
    21:00 +16°C° 0 mm 8 m/s 754 mmHg 59%
    22:00 +16°C° 0 mm 7 m/s 754 mmHg 60%
    23:00 +16°C° 0 mm 7 m/s 754 mmHg 64%

    Demain, 25 Octobre, Jeudi

    Heure Température Précipitation Vent Pression Humidité
    00:00 +15°C° 0 mm 7 m/s 754 mmHg 68%
    01:00 +15°C° 0 mm 7 m/s 755 mmHg 72%
    02:00 +15°C° 0 mm 8 m/s 755 mmHg 74%
    03:00 +15°C° 0 mm 9 m/s 755 mmHg 77%
    04:00 +15°C° 0 mm 9 m/s 755 mmHg 80%
    05:00 +13°C° 0 mm 9 m/s 756 mmHg 78%
    06:00 +13°C° 0 mm 9 m/s 757 mmHg 77%
    07:00 +13°C° 0 mm 9 m/s 757 mmHg 76%
    08:00 +16°C° 0 mm 8 m/s 758 mmHg 65%
    09:00 +18°C° 0 mm 8 m/s 758 mmHg 54%
    10:00 +21°C° 0 mm 7 m/s 759 mmHg 43%
    11:00 +21°C° 0 mm 7 m/s 758 mmHg 38%
    12:00 +22°C° 0 mm 7 m/s 758 mmHg 34%
    13:00 +23°C° 0 mm 7 m/s 758 mmHg 29%
    14:00 +22°C° 0 mm 7 m/s 758 mmHg 32%
    15:00 +22°C° 0 mm 8 m/s 758 mmHg 35%
    16:00 +21°C° 0 mm 8 m/s 758 mmHg 38%
    17:00 +20°C° 0 mm 7 m/s 759 mmHg 38%
    18:00 +17°C° 0 mm 7 m/s 759 mmHg 39%
    19:00 +16°C° 0 mm 6 m/s 759 mmHg 39%
    20:00 +16°C° 0 mm 5 m/s 760 mmHg 39%
    21:00 +15°C° 0 mm 4 m/s 760 mmHg 39%
    22:00 +15°C° 0 mm 4 m/s 760 mmHg 38%
    23:00 +16°C° 0 mm 3 m/s 760 mmHg 38%

    Après-demain, 26 Octobre, Vendredi

    Heure Température Précipitation Vent Pression Humidité
    00:00 +16°C° 0 mm 3 m/s 760 mmHg 38%
    01:00 +16°C° 0 mm 2 m/s 760 mmHg 37%
    02:00 +16°C° 0 mm 2 m/s 760 mmHg 37%
    03:00 +15°C° 0 mm 2 m/s 760 mmHg 37%
    04:00 +15°C° 0 mm 2 m/s 760 mmHg 37%
    05:00 +16°C° 0 mm 2 m/s 760 mmHg 38%
    06:00 +16°C° 0 mm 3 m/s 760 mmHg 39%
    07:00 +16°C° 0 mm 3 m/s 760 mmHg 40%
    08:00 +18°C° 0 mm 3 m/s 760 mmHg 41%
    09:00 +20°C° 0 mm 4 m/s 760 mmHg 41%
    10:00 +22°C° 0 mm 4 m/s 760 mmHg 41%
    11:00 +22°C° 0 mm 5 m/s 760 mmHg 43%
    12:00 +23°C° 0 mm 5 m/s 760 mmHg 45%
    13:00 +23°C° 0 mm 5 m/s 759 mmHg 47%
    14:00 +23°C° 0 mm 5 m/s 759 mmHg 52%
    15:00 +22°C° 0 mm 5 m/s 759 mmHg 56%
    16:00 +21°C° 0 mm 5 m/s 759 mmHg 61%
    17:00 +20°C° 0 mm 5 m/s 759 mmHg 67%
    18:00 +19°C° 0 mm 5 m/s 760 mmHg 72%
    19:00 +17°C° 0 mm 5 m/s 760 mmHg 77%
    20:00 +17°C° 0 mm 6 m/s 760 mmHg 77%
    21:00 +17°C° 0 mm 6 m/s 760 mmHg 77%
    22:00 +17°C° 0 mm 6 m/s 760 mmHg 77%
    23:00 +17°C° 0.1 mm 6 m/s 760 mmHg 77%

    27 Octobre, Samedi

    Heure Température Précipitation Vent Pression Humidité
    00:00 +17°C° 0.1 mm 6 m/s 760 mmHg 78%
    01:00 +17°C° 0.1 mm 6 m/s 760 mmHg 78%
    02:00 +17°C° 0.1 mm 6 m/s 760 mmHg 79%
    03:00 +17°C° 0.1 mm 6 m/s 759 mmHg 80%
    04:00 +17°C° 0.1 mm 6 m/s 759 mmHg 80%
    05:00 +17°C° 0 mm 6 m/s 759 mmHg 81%
    06:00 +17°C° 0 mm 6 m/s 759 mmHg 81%
    07:00 +17°C° 0 mm 6 m/s 759 mmHg 81%
    08:00 +20°C° 0.1 mm 6 m/s 759 mmHg 78%
    09:00 +21°C° 0.1 mm 7 m/s 759 mmHg 75%
    10:00 +22°C° 0.1 mm 7 m/s 759 mmHg 72%
    11:00 +22°C° 0.1 mm 7 m/s 759 mmHg 73%
    12:00 +22°C° 0.1 mm 7 m/s 759 mmHg 73%
    13:00 +22°C° 0.1 mm 6 m/s 758 mmHg 73%
    14:00 +22°C° 0.2 mm 6 m/s 758 mmHg 76%
    15:00 +22°C° 0.2 mm 6 m/s 758 mmHg 79%
    16:00 +21°C° 0.2 mm 6 m/s 758 mmHg 81%
    17:00 +21°C° 0.1 mm 6 m/s 758 mmHg 85%
    18:00 +20°C° 0.1 mm 6 m/s 758 mmHg 88%
    19:00 +19°C° 0.1 mm 6 m/s 759 mmHg 92%
    20:00 +19°C° 0.1 mm 6 m/s 759 mmHg 92%
    21:00 +19°C° 0.1 mm 6 m/s 759 mmHg 92%
    22:00 +19°C° 0.1 mm 6 m/s 759 mmHg 92%
    23:00 +19°C° 0.1 mm 6 m/s 759 mmHg 92%

    28 Octobre, Dimanche

    Heure Température Précipitation Vent Pression Humidité
    00:00 +19°C° 0.1 mm 6 m/s 759 mmHg 92%
    01:00 +19°C° 0.1 mm 6 m/s 758 mmHg 92%
    02:00 +17°C° 0.1 mm 6 m/s 758 mmHg 92%
    03:00 +17°C° 0.1 mm 6 m/s 758 mmHg 92%
    04:00 +17°C° 0.1 mm 7 m/s 758 mmHg 92%
    05:00 +17°C° 0 mm 7 m/s 758 mmHg 90%
    06:00 +17°C° 0 mm 7 m/s 758 mmHg 88%
    07:00 +17°C° 0 mm 8 m/s 758 mmHg 87%
    08:00 +20°C° 0 mm 8 m/s 758 mmHg 80%
    09:00 +21°C° 0 mm 8 m/s 758 mmHg 74%
    10:00 +23°C° 0 mm 9 m/s 758 mmHg 68%
    11:00 +23°C° 0.1 mm 9 m/s 757 mmHg 67%
    12:00 +23°C° 0.1 mm 9 m/s 757 mmHg 67%
    13:00 +23°C° 0.1 mm 10 m/s 756 mmHg 66%
    14:00 +23°C° 0 mm 10 m/s 756 mmHg 66%
    15:00 +22°C° 0 mm 10 m/s 756 mmHg 66%
    16:00 +21°C° 0 mm 10 m/s 756 mmHg 66%
    17:00 +21°C° 0.1 mm 10 m/s 756 mmHg 67%
    18:00 +19°C° 0.1 mm 10 m/s 756 mmHg 68%
    19:00 +18°C° 0.1 mm 10 m/s 756 mmHg 68%
    20:00 +18°C° 0.1 mm 10 m/s 756 mmHg 65%
    21:00 +18°C° 0.1 mm 10 m/s 756 mmHg 63%
    22:00 +18°C° 0.1 mm 10 m/s 756 mmHg 60%
    23:00 +17°C° 0 mm 11 m/s 755 mmHg 62%

    29 Octobre, Lundi

    Heure Température Précipitation Vent Pression Humidité
    00:00 +17°C° 0 mm 11 m/s 755 mmHg 65%
    01:00 +17°C° 0 mm 11 m/s 754 mmHg 67%
    02:00 +17°C° 0 mm 12 m/s 754 mmHg 66%
    03:00 +17°C° 0 mm 12 m/s 754 mmHg 66%
    04:00 +17°C° 0 mm 13 m/s 753 mmHg 65%
    05:00 +17°C° 1.8 mm 13 m/s 754 mmHg 68%
    06:00 +17°C° 1.8 mm 13 m/s 754 mmHg 71%
    07:00 +17°C° 1.8 mm 13 m/s 754 mmHg 74%
    08:00 +17°C° 2.3 mm 13 m/s 754 mmHg 76%
    09:00 +17°C° 2.3 mm 13 m/s 754 mmHg 79%
    10:00 +17°C° 2.3 mm 13 m/s 754 mmHg 81%
    11:00 +18°C° 1.5 mm 12 m/s 754 mmHg 81%
    12:00 +19°C° 1.5 mm 12 m/s 753 mmHg 80%
    13:00 +21°C° 1.5 mm 12 m/s 753 mmHg 80%
    14:00 +19°C° 0.8 mm 12 m/s 753 mmHg 82%
    15:00 +19°C° 0.8 mm 12 m/s 753 mmHg 85%
    16:00 +19°C° 0.8 mm 11 m/s 753 mmHg 87%
    17:00 +19°C° 0.8 mm 11 m/s 753 mmHg 88%
    18:00 +19°C° 0.8 mm 11 m/s 754 mmHg 90%
    19:00 +19°C° 0.8 mm 10 m/s 754 mmHg 91%
    20:00 +19°C° 1.2 mm 10 m/s 754 mmHg 92%
    21:00 +19°C° 1.2 mm 10 m/s 754 mmHg 92%
    22:00 +19°C° 1.2 mm 10 m/s 754 mmHg 92%
    23:00 +19°C° 3.1 mm 11 m/s 754 mmHg 93%

    30 Octobre, Mardi

    Heure Température Précipitation Vent Pression Humidité
    00:00 +19°C° 3.1 mm 11 m/s 753 mmHg 93%
    01:00 +19°C° 3.1 mm 12 m/s 753 mmHg 93%
    02:00 +19°C° 2.9 mm 12 m/s 752 mmHg 93%
    03:00 +19°C° 2.9 mm 12 m/s 752 mmHg 94%
    04:00 +19°C° 2.9 mm 13 m/s 751 mmHg 94%
    05:00 +19°C° 2.3 mm 13 m/s 751 mmHg 93%
    06:00 +18°C° 2.3 mm 13 m/s 750 mmHg 92%
    07:00 +18°C° 2.3 mm 13 m/s 750 mmHg 90%
    08:00 +19°C° 6.4 mm 13 m/s 750 mmHg 87%
    09:00 +19°C° 6.4 mm 13 m/s 749 mmHg 84%
    10:00 +20°C° 6.4 mm 13 m/s 749 mmHg 81%
    11:00 +19°C° 10.2 mm 12 m/s 749 mmHg 86%
    12:00 +18°C° 10.2 mm 11 m/s 750 mmHg 91%
    13:00 +18°C° 10.2 mm 10 m/s 750 mmHg 97%
    14:00 +17°C° 4.4 mm 9 m/s 751 mmHg 95%
    15:00 +15°C° 4.4 mm 8 m/s 752 mmHg 92%
    16:00 +14°C° 4.4 mm 7 m/s 753 mmHg 90%
    17:00 +14°C° 1.5 mm 6 m/s 754 mmHg 91%
    18:00 +14°C° 1.5 mm 5 m/s 754 mmHg 91%
    19:00 +13°C° 1.5 mm 4 m/s 755 mmHg 91%
    20:00 +14°C° 0 mm 4 m/s 756 mmHg 90%
    21:00 +14°C° 0 mm 4 m/s 757 mmHg 89%
    22:00 +14°C° 0 mm 4 m/s 758 mmHg 87%
    23:00 +14°C° 0 mm 3 m/s 758 mmHg 87%
    Voir plus